Back to catalog

COSMOS 494

AliveMilitaryLEO
NORAD 6059·PAYLOAD·🇷🇺 Russia

Launched Jun 23, 1972 from Plesetsk Cosmodrome

Loading…

Next Passes (next 24 hours)

TLE

FreshSource: Space-Track

Epoch: Sep 14, 2026, 11:39 UTC

1 06059U 72043A   26257.48606383  .00000057  00000-0  28269-4 0  9999
2 06059  74.0530 277.9691 0009750  26.4828 333.6821 14.36552551836968

Track COSMOS 494 in real time with AllMySat

Download on the App Store